CYGFM07 (41890 NORAD) Tracking and Keplerian Element Data

This shows tracking and keplerian element data for the satellite.

Feedback or suggestion? Click here.




ElementValue
Catalog41890
NameCYGFM07
Epoch Orbit32044
Epoch Day270.18887761
Epoch Year2022
RAAN276.4197
Inclination34.9512
Eccentricity0.0013388
Argument of Perigee296.3183
Mean Anonmoly63.6154
Mean Motion15.17342206
Decay Rate3.95E-05
L11 41890U 16078G 22270.18887761 .00003950 00000+0 19455-3 0 9996
L22 41890 34.9512 276.4197 0013388 296.3183 63.6154 15.17342206320448

Live tracking and technical data element details for CYGFM07 (NORAD 41890). CYGFM07 can be tracked NOW for your location showing map with azimuth and elevation plus other details from your city location.

Track the satellite on the map from your city or location and see movement details for azimuth, elevation, latitude, longitude, range, height, and movement on the map or in text.







IsCatalogInMostPopularTable: catalog: 41890, numindb: 594
Update: records affected: 1



GetName: 41890 CYGFM07

Hit Count: updated at: Wed, 05 Oct 2022 08:55:56 GMT